Station KP58 - Port Hope, MI Image indicating link to RSS feed of recent meteorological observations for station KP58


Conditions at KP58 as of
(6:55 pm EDT)
2255 GMT on 07/18/2024:
     

Click on the graph icon in the table below to see a time series plot of the last five days of that observation.

5-day plot - Wind Direction Wind Direction (WDIR): N ( 360 deg true )
5-day plot - Wind Speed Wind Speed (WSPD): 2.9 kts
5-day plot - Atmospheric Pressure Atmospheric Pressure (PRES):30.12 in
5-day plot - Air Temperature Air Temperature (ATMP): 70.0 °F
5-day plot - Dew Point Dew Point (DEWP): 51.1 °F
5-day plot -  Wind Speed, Wind Gust and Atmospheric Pressure Combined plot of Wind Speed, Gust, and Air Pressure
Previous observations
TIME
(EDT)
5-day plot - Wind Direction
WDIR
 
5-day plot - Wind Speed
WSPD
kts
5-day plot - Wind Gust
GST
kts
5-day plot - Wave Height
WVHT
ft
5-day plot - Dominant Wave Period
DPD
sec
5-day plot - Average Wave Period
APD
sec
5-day plot - Mean Wave Direction
MWD
 
5-day plot - Atmospheric Pressure
PRES
in
5-day plot - Pressure Tendency
PTDY
in
5-day plot - Air Temperature
ATMP
°F
5-day plot - Water Temperature
WTMP
°F
5-day plot - Dew Point
DEWP
°F
5-day plot - Salinity
SAL
psu
5-day plot - Visibility
VIS
nmi
5-day plot - Tide (above MLLW)
TIDE
ft
2024-07-18 05:55 pm- 0.0-----30.12- 70.0- 53.1---
2024-07-18 04:55 pm- 2.9-----30.12- 70.0- 52.0---
2024-07-18 03:55 pm- 4.1-----30.13- 70.0- 54.0---
2024-07-18 02:55 pm N 6.0-----30.13- 70.0- 54.0---
2024-07-18 01:55 pm- 4.1-----30.13- 70.0- 55.9---
2024-07-18 12:55 pm- 2.9 17.1----30.13- 68.0- 55.0---
2024-07-18 11:55 amNNE 11.1-----30.12- 68.0- 54.0---
2024-07-18 10:55 am N 8.0 15.9----30.11- 66.9- 54.0---
2024-07-18 09:55 am-------30.10- 66.0- 53.1---
2024-07-18 08:55 am- 4.1-----30.08- 66.0- 54.0---
2024-07-18 07:55 am-------30.06- 66.0- 55.0---
2024-07-18 06:55 am- 2.9-----30.04- 64.9- 55.0---
2024-07-18 05:55 am- 2.9-----30.03- 64.0- 57.0---
2024-07-18 04:55 am- 6.0-----30.01- 64.9- 57.0---
2024-07-18 03:55 am-------29.99- 64.9- 57.0---
2024-07-18 02:55 am- 2.9-----29.99- 66.0- 55.9---
2024-07-18 01:55 amNNW 7.0-----29.98- 66.0- 57.9---
2024-07-18 12:55 am-------29.99- 66.0- 57.0---
2024-07-17 11:55 pm NW 7.0-----29.98- 66.0- 55.9---
2024-07-17 10:55 pm NW 9.9 15.9----29.96- 66.9- 55.0---
2024-07-17 09:55 pm-------29.95- 68.0- 55.9---
2024-07-17 08:55 pm- 2.9-----29.94- 68.0- 57.9---
2024-07-17 07:55 pm- 0.0-----29.91- 71.1- 57.0---
2024-07-17 06:55 pm NE 6.0-----29.90- 71.1- 59.0---